Probability
0 0 0 0 0 0 0 0 0 0 0 0 0 0 0 0 0 0 0 0 0 0 0 0 0 0 0 0 0 0 0 0 0 0 0 0 0 0 0 0 0 0 0
0 0 0 0 0 0 0 0 0 0 0 0 0 0 0 0 0 0 0 0 0 0 0 0 0 1 1 1 1 0 0 0 1 1 0 0 0 0 0 0 0 0 0
0 0 0 0 0 0 0 0 0 0 0 0 0 0 0 0 0 0 0 0 0 0 0 0 1 2 2 2 2 2 1 1 1 1 0 0 0 0 0 0 0 0 0
0 0 0 0 0 0 0 0 0 0 0 0 0 0 0 0 0 0 0 0 0 0 0 0 1 2 2 3 3 3 2 2 1 1 0 0 0 0 0 0 0 0 0
0 0 0 0 0 0 0 0 0 0 0 0 0 0 0 0 0 0 0 0 0 0 0 0 0 1 1 1 2 2 2 2 2 2 1 0 0 0 0 0 0 0 0
0 0 0 0 0 0 0 0 0 0 0 0 0 0 0 0 0 0 0 0 0 0 0 0 0 0 0 0 1 1 1 2 2 2 1 0 0 0 0 0 0 0 0
0 0 0 0 0 0 0 0 0 0 0 0 0 0 0 0 0 0 0 0 0 0 0 0 0 0 0 0 0 0 0 1 1 1 0 0 0 0 0 0 0 0 0
0 0 0 0 0 0 0 0 0 0 0 0 0 0 0 0 0 0 0 0 0 0 0 0 0 0 0 0 0 0 0 0 0 0 0 0 0 0 0 0 0 0 0
0 0 0 0 0 0 0 0 0 0 0 0 0 0 0 0 0 0 0 0 0 0 0 0 0 0 0 0 0 0 0 0 0 0 0 0 0 0 0 0 0 0 0
0 0 0 0 0 0 0 0 0 0 0 0 0 0 0 0 0 0 0 0 0 0 0 0 0 0 0 0 0 0 0 0 0 0 0 0 0 0 0 0 0 0 0
0 0 0 0 0 0 0 0 0 0 0 0 0 0 0 0 0 0 0 0 0 0 0 0 0 0 0 0 0 0 0 0 0 0 0 0 0 0 0 0 0 0 0
0 0 0 0 0 0 0 0 0 0 0 0 0 0 0 0 0 0 0 0 0 0 0 0 0 0 0 0 0 0 0 0 0 0 0 0 0 0 0 0 0 0 0
0 0 0 0 0 0 0 0 0 0 0 0 0 0 0 0 0 0 0 0 0 0 0 0 0 0 0 0 0 0 0 0 0 0 0 0 0 0 0 0 0 0 0
0 0 0 0 0 0 0 0 0 0 0 0 0 0 0 0 0 0 0 0 0 0 0 0 0 0 0 0 0 0 0 0 0 0 0 0 0 0 0 0 0 0 0
0 0 0 0 0 0 0 0 0 0 0 0 0 0 0 0 0 0 0 0 0 0 0 0 0 0 0 0 0 0 0 0 0 0 0 0 0 0 0 0 0 0 0
0 0 0 0 0 0 0 0 0 0 0 0 0 0 0 0 0 0 0 0 0 0 0 0 0 0 0 0 0 0 0 0 0 0 0 0 0 0 0 0 0 0 0
0 0 0 0 0 0 0 0 0 0 0 0 0 0 0 0 0 0 0 0 0 0 0 0 0 0 0 0 0 0 0 0 0 0 0 0 0 0 0 0 0 0 0
0 0 0 0 0 0 0 0 0 0 0 0 0 0 0 0 0 0 0 0 0 0 0 0 0 0 0 0 0 0 0 0 0 0 0 0 0 0 0 0 0 0 0
0 0 0 0 0 0 0 0 0 0 0 0 0 0 0 0 0 0 0 0 0 0 0 0 0 0 0 0 0 0 0 0 0 0 0 0 0 0 0 0 0 0 0
0 0 0 0 0 0 0 0 0 0 0 0 0 0 0 0 0 0 0 0 0 0 0 0 0 0 0 0 0 0 0 0 0 0 0 0 0 0 0 0 0 0 0
0 0 0 0 0 0 0 0 0 0 0 0 0 0 0 0 0 0 0 0 0 0 0 0 0 0 0 0 0 0 0 0 0 0 0 0 0 0 0 0 0 0 0
0 0 0 0 0 0 0 0 0 0 0 0 0 0 0 0 0 0 0 0 0 0 0 0 0 0 0 0 0 0 0 0 0 0 0 0 0 0 0 0 0 0 0
0 0 0 0 0 0 0 0 0 0 0 0 0 0 0 0 0 0 0 0 0 0 0 0 0 0 0 0 0 0 0 0 0 0 0 0 0 0 0 0 0 0 0
0 0 0 0 0 0 0 0 0 0 0 0 0 0 0 0 0 0 0 0 0 0 0 0 0 0 0 0 0 0 0 0 0 0 0 0 0 0 0 0 0 0 0
0 0 0 0 0 0 0 0 0 0 0 0 0 0 0 0 0 0 0 0 0 0 0 0 0 0 0 0 0 0 0 0 0 0 0 0 0 0 0 0 0 0 0
0 0 0 0 0 0 0 0 0 0 0 0 0 0 0 0 0 0 0 0 0 0 0 0 0 0 0 0 0 0 0 0 0 0 0 0 0 0 0 0 0 0 0
Wind_Speed
1 1 1 0 0 0 0 0 0 0 1 1 1 1 2 2 2 3 4 4 5 4 4 5 6 5 5 4 4 5 5 6 10 8 5 5 6 6 5 5 6 6 6
1 1 1 1 1 0 0 1 0 0 0 1 1 1 1 1 1 2 3 3 3 4 4 4 5 4 5 4 4 5 5 5 7 11 7 5 6 6 6 6 5 5 6
2 1 1 1 1 0 0 1 1 1 1 0 0 0 0 1 1 2 2 2 3 3 3 4 5 4 5 4 4 5 5 5 6 7 8 5 5 4 6 6 6 5 6
2 2 1 1 1 0 0 1 1 1 1 1 1 0 0 1 1 1 2 2 3 3 3 3 4 3 4 5 4 5 5 5 6 6 7 6 5 4 4 5 7 5 6
2 2 1 1 1 1 1 1 1 1 1 1 1 1 1 1 1 2 2 2 3 3 3 3 3 3 3 4 4 4 5 5 5 6 7 6 6 4 5 4 7 7 7
2 2 1 1 1 1 1 1 1 1 1 2 1 1 2 2 3 4 3 3 3 3 3 3 3 3 3 5 6 6 6 6 7 6 6 7 8 6 5 5 6 7 7
2 1 1 1 1 0 1 1 1 1 2 1 1 2 2 3 5 5 5 3 3 2 3 3 4 4 4 4 6 6 6 6 7 7 8 8 8 7 7 7 7 7 9
2 1 1 1 0 0 1 0 1 1 1 1 2 2 2 3 6 6 6 3 2 3 3 4 4 4 5 5 6 6 6 5 6 5 6 7 7 7 7 8 8 8 8
2 1 1 1 1 1 0 1 1 1 1 1 2 2 2 3 5 6 6 3 3 4 4 4 4 4 6 8 6 6 7 6 6 7 9 10 12 12 9 6 6 6 8
2 2 1 1 1 1 1 1 1 1 1 1 2 2 2 2 5 6 6 2 3 3 3 3 4 6 8 9 6 6 8 8 7 7 7 8 8 8 8 6 5 6 7
2 1 1 1 1 1 1 1 1 1 2 2 2 2 2 3 4 6 6 3 2 3 3 3 3 7 9 10 9 6 8 9 7 7 7 6 5 5 4 4 4 5 7
2 2 2 1 1 1 1 1 1 2 2 1 1 2 2 3 4 5 7 6 5 3 3 3 4 9 10 11 8 8 10 8 5 5 5 5 5 5 5 5 5 5 6
2 2 1 1 1 1 2 1 1 1 1 0 0 1 2 2 3 6 6 7 7 4 4 6 8 9 9 7 7 9 7 4 4 5 5 6 5 6 6 5 5 5 6
2 2 2 2 2 1 1 1 1 1 0 0 0 1 2 2 2 3 3 4 5 5 4 4 7 8 7 7 6 5 3 3 4 5 5 6 5 5 5 5 6 6 6
2 2 1 1 2 1 1 0 1 0 1 1 1 1 1 2 3 5 4 3 3 3 4 3 3 3 3 3 4 4 4 3 3 4 5 5 6 6 6 5 5 5 5
1 1 1 1 1 1 1 1 2 1 1 1 2 2 2 3 5 6 6 6 6 6 3 2 3 3 4 4 4 5 4 4 4 4 5 5 6 6 7 6 5 5 6
1 1 1 1 1 1 1 1 0 2 2 2 3 3 4 4 5 6 6 6 5 5 2 2 3 3 4 4 4 4 5 5 4 4 5 5 5 6 6 6 6 6 6
0 1 1 1 1 1 1 1 1 1 1 2 3 4 5 6 6 6 6 4 3 3 2 2 3 3 4 4 4 4 5 4 4 4 5 5 5 5 6 6 6 6 7
0 0 0 0 0 1 1 1 1 1 1 1 2 3 4 5 5 5 4 2 2 2 2 3 3 4 4 4 4 4 4 4 5 4 5 5 5 5 6 6 6 7 7
0 1 1 1 1 1 1 1 1 1 1 1 2 2 2 2 2 3 2 2 2 3 3 3 3 4 4 4 4 4 4 4 5 4 5 5 5 5 6 7 6 6 6
0 1 1 1 1 1 1 1 1 1 1 2 2 3 4 2 2 3 3 3 3 3 3 3 4 4 4 4 4 4 5 5 4 5 5 5 5 5 5 6 6 6 6
0 1 1 1 1 1 1 1 1 1 2 2 2 3 5 2 2 3 3 3 3 3 3 3 4 4 4 4 4 5 5 5 5 5 5 5 5 5 6 6 6 6 6
0 0 0 0 0 1 1 1 1 2 2 2 2 2 2 3 3 3 3 3 3 3 3 3 4 4 4 4 4 5 5 6 5 5 6 6 6 6 6 6 7 7 6
0 0 0 0 1 1 1 2 2 2 2 2 3 3 3 3 3 4 4 4 4 4 4 4 4 6 8 7 5 5 5 6 6 6 8 7 7 7 6 6 7 7 7
1 1 0 1 1 1 2 2 2 2 2 3 3 3 3 3 4 4 4 4 4 5 5 5 5 6 8 9 9 8 9 10 9 7 7 7 8 8 7 7 7 7 7
0 1 1 1 1 1 2 2 2 2 3 3 3 3 4 4 4 4 4 4 4 5 5 5 6 8 9 8 10 11 11 11 11 11 8 6 7 7 7 6 7 7 7
Wind_Direction
134 132 119 103 63 93 132 198 239 265 292 282 258 238 235 235 234 234 241 245 243 248 249 250 255 258 261 263 261 260 261 262 275 282 277 286 285 283 288 280 275 272 276
161 154 149 132 125 140 219 302 313 291 300 296 301 272 262 267 256 246 256 259 255 260 264 263 267 269 265 267 267 267 267 265 272 284 290 291 287 291 293 291 289 284 279
160 161 159 157 150 157 270 333 345 337 325 350 10 293 290 279 273 259 255 261 262 265 270 271 277 279 277 280 279 277 276 279 273 279 285 285 285 297 304 298 296 292 288
159 162 167 173 152 137 57 25 1 351 344 340 320 294 312 324 319 315 303 291 280 276 272 272 275 274 278 285 285 286 290 289 285 282 284 288 286 293 301 300 305 300 293
166 175 180 127 76 62 46 28 17 10 8 357 355 2 6 358 358 345 321 299 291 290 291 290 293 297 302 299 296 298 300 292 291 289 288 293 293 304 299 297 295 300 292
170 176 134 97 78 65 30 16 32 26 24 26 20 22 17 9 8 1 337 313 306 298 299 304 305 295 307 308 301 295 291 290 290 288 288 289 293 297 300 301 301 306 296
153 144 119 113 114 68 46 39 39 25 31 37 31 39 33 16 15 7 357 335 320 309 310 316 322 332 331 325 318 311 302 292 282 283 286 287 294 302 306 301 295 287 282
142 129 110 117 133 72 72 57 30 31 30 25 27 32 36 21 19 10 356 354 342 340 336 327 324 327 339 340 329 320 310 306 299 290 285 290 298 304 300 294 292 290 282
158 152 143 147 156 125 95 18 14 22 27 28 30 31 29 18 18 12 4 353 356 351 347 346 338 328 334 338 328 314 308 305 315 305 298 296 298 299 299 297 295 296 294
182 176 154 150 164 165 153 51 29 37 36 36 27 28 27 12 15 14 6 3 357 345 342 342 339 335 333 334 325 312 304 307 312 310 304 301 298 298 296 282 283 287 290
146 135 118 114 129 124 88 73 73 66 58 45 30 19 26 14 10 12 7 4 348 326 320 323 326 332 328 327 325 311 306 312 308 306 306 306 305 301 298 287 274 272 278
114 117 108 99 102 101 95 70 70 83 81 53 32 13 20 15 9 4 2 359 349 324 312 315 318 323 322 321 324 324 324 322 309 305 304 306 310 311 310 305 293 278 269
114 126 130 117 99 101 114 106 82 85 104 79 27 342 348 7 0 2 358 354 348 336 316 315 320 322 323 323 324 327 327 319 311 308 307 309 310 308 309 308 304 299 290
143 148 141 138 112 91 96 114 131 135 117 29 333 318 329 344 345 348 346 344 344 339 328 320 321 322 323 323 324 329 326 317 309 305 306 309 312 312 310 312 312 315 309
155 147 146 140 128 128 107 121 160 187 188 199 234 258 288 299 316 330 334 328 327 319 326 326 326 329 330 329 327 323 322 321 319 317 314 314 316 316 315 319 314 316 309
156 142 142 132 124 128 123 45 27 23 26 9 349 333 319 321 324 325 328 333 337 338 346 329 321 319 319 323 324 322 324 327 326 322 317 313 313 313 314 316 315 312 308
169 164 167 162 159 155 153 154 344 1 16 12 359 347 338 336 333 333 336 338 344 357 356 315 308 310 312 313 313 314 318 324 326 320 314 312 311 310 311 313 316 313 308
157 175 189 195 187 180 186 208 210 234 301 319 339 342 342 336 334 338 344 356 348 356 334 308 304 303 305 308 310 313 315 319 319 314 311 308 306 306 309 310 312 311 308
165 167 185 199 203 195 191 203 222 237 257 287 319 333 342 334 333 338 353 357 305 304 302 299 301 302 301 301 301 303 304 304 306 307 304 301 301 303 304 306 306 307 306
163 154 158 174 187 193 186 189 216 241 264 283 290 296 317 336 323 318 325 309 293 289 291 291 293 296 296 294 295 298 300 300 303 301 298 298 299 299 300 302 303 303 302
171 160 145 151 195 208 211 221 239 246 254 267 271 283 303 302 290 289 291 288 286 287 290 291 290 291 293 293 290 293 295 295 296 296 297 297 297 298 298 296 297 295 297
211 177 169 180 200 220 245 253 256 263 268 273 283 295 303 304 281 278 282 286 290 287 285 286 287 284 286 290 288 287 287 289 290 290 291 294 295 293 292 292 294 296 298
38 159 169 196 208 227 256 256 254 257 265 272 279 282 279 274 276 279 283 288 291 290 290 286 286 289 289 290 285 277 279 281 282 283 286 289 289 290 290 288 287 290 293
331 283 236 252 250 230 235 246 250 258 266 271 273 272 271 272 274 279 283 286 288 287 285 284 282 284 289 293 290 280 276 279 281 277 275 277 281 283 285 286 285 285 288
312 286 261 250 254 254 253 254 255 259 267 268 269 273 277 277 277 279 281 284 286 286 288 286 283 284 287 289 289 284 282 283 282 277 274 272 273 276 278 278 280 284 285
280 271 270 266 261 256 255 261 266 269 272 271 266 268 273 274 276 278 280 282 286 287 288 286 283 285 288 289 288 288 286 286 282 277 270 268 269 272 273 274 276 278 280